Regional Weather Roundup
Issued by NWS

Home | Current Version | Previous Version | Text Only | Print | Product List | Glossary Off
Versions: 1 2 3 4 5 6 7 8 9 10 11 12 13 14 15 16 17 18 19 20 21 22 23 24 25 26 27 28 29 30 31 32 33 34 35 36 37 38 39 40 41 42 43 44 45 46 47 48 49 50

000
ASUS43 KMPX 012210
RWRMN
WEATHER ROUNDUP FOR MINNESOTA
NATIONAL WEATHER SERVICE TWIN CITIES/CHANHASSEN MN
400 PM CST MON MAR 01 2021


NOTE: "FAIR" INDICATES FEW OR NO CLOUDS BELOW 12,000 FEET WITH NO
SIGNIFICANT WEATHER AND/OR OBSTRUCTIONS TO VISIBILITY. N/A MEANS
CURRENT SKY AND/OR WEATHER CONDITIONS ARE NOT AVAILABLE.

MNZ060>063-068>070-012300-
   Twin Cities Metro

CITY           SKY/WX    TMP DP  RH WIND       PRES   REMARKS
TWIN CITIES    SUNNY     24  -3  30 CALM      30.37F
ST PAUL        SUNNY     24   0  35 CALM      30.39F
CRYSTAL        SUNNY     22  -4  32 CALM      30.36F
BLAINE         SUNNY     21  -2  35 VRB3      30.36F
LAKEVILLE      SUNNY     21   0  39 SW3       30.37F
EDEN PRAIRIE   SUNNY     24  -4  29 CALM      30.36F
SOUTH ST PAUL  SUNNY     24  -1  33 NW5       30.37F WCI  18
$$
MNZ001>005-007-008-013>017-022>024-027-028-012300-
   Northwest Minnesota

CITY           SKY/WX    TMP DP  RH WIND       PRES   REMARKS
BEMIDJI        SUNNY     20  -5  33 S7        30.24F WCI  11
HALLOCK        PTSUNNY   18   1  49 S18       30.19F WCI   2
ROSEAU         MOSUNNY   19  -9  27 S13       30.24F WCI   7
WARROAD        SUNNY     12  -2  52 S6        30.24F WCI   3
THIEF RVR FALL CLOUDY    16   0  49 S16       30.26F WCI   1
CROOKSTON      PTSUNNY   16  -2  45 S16       30.26F WCI   0
FOSSTON        PTSUNNY   12  -2  52 S12       30.27F WCI  -2
DETROIT LAKES  PTSUNNY   16  -2  45 SW8       30.27F WCI   5
MOORHEAD       SUNNY     14  -9  34 S14       30.30F WCI  -1
PARK RAPIDS    MOSUNNY   18  -3  39 S7        30.26F WCI   9
MAHNOMEN       CLOUDY    14   0  54 S12       30.26F WCI   0
$$
MNZ006-009>011-018-025>026-012300-
   North Central Minnesota

CITY           SKY/WX    TMP DP  RH WIND       PRES   REMARKS
BAUDETTE       SUNNY     14  -5  42 S9        30.24F WCI   2
FLAG ISLAND    PTSUNNY    3  -9  55 SE12      30.24F WCI -13
INTL FALLS     SUNNY     15 -10  32 VRB7      30.27F WCI   5
WASKISH        SUNNY      9  -9  43 CALM      30.27F
BIG FORK       SUNNY     18  -6  35 SW7       30.32F WCI   8
LONGVILLE      SUNNY     18  -8  32 S7        30.30F WCI   8
GRAND RAPIDS   SUNNY     16  -6  37 VRB3      30.30F
CRANE LAKE     SUNNY     12 -15  29 SW3       30.31F
ORR            SUNNY     16 -17  22 CALM      30.25F
COOK           SUNNY     16  -9  32 W3        30.27F
WALKER         CLEAR     18  -6  33 SW10      30.27F WCI   6
$$
MNZ012-019>021-037-012300-
   Northeast Minnesota

CITY           SKY/WX    TMP DP  RH WIND       PRES   REMARKS
DULUTH         SUNNY     16  -6  37 W6        30.28S WCI   7
ELY            SUNNY     12 -15  29 W9        30.27S WCI   0
HIBBING        SUNNY     15  -8  35 VRB3      30.28F
EVELETH        SUNNY     15  -7  38 W8        30.29S WCI   4
DULUTH HARBOR  SUNNY     19 -11  25 SW5       30.36S WCI  13
TWO HARBORS    SUNNY     18 -11  27 W6        30.28F WCI   9
SILVER BAY     SUNNY     19 -17  19 CALM      30.28S
GRAND MARAIS     N/A     20  -8  28 VRB7      30.30R WCI  11
G MARAIS ARPRT SUNNY     12 -18  24 W6        30.19R WCI   3
$$
MNZ029>031-032-039>041-046>048-054>057-064-012300-
   West Central Minnesota

CITY           SKY/WX    TMP DP  RH WIND       PRES   REMARKS
FERGUS FALLS   PTSUNNY   12   3  67 S7        30.29F WCI   2
WHEATON        SUNNY     21  10  63 SE13      30.33F WCI   9
MORRIS         SUNNY     19   3  49 SW12      30.35F WCI   7
ELBOW LAKE     FAIR      16   1  51 S7        30.33F WCI   6
WADENA         PTSUNNY   18   0  45 S3        30.29F
GLENWOOD       SUNNY     19   1  45 S7        30.34S WCI  10
APPLETON       SUNNY     18   1  49 S8        30.37F WCI   7
BENSON         SUNNY     18   3  53 SW5       30.38F WCI  11
ORTONVILLE     SUNNY     19   7  58 S10G16    30.34F WCI   8
MADISON        SUNNY     19   9  63 S9        30.39F WCI   9
WILLMAR        FAIR      16   5  62 SW6       30.41R WCI   7
$$
MNZ033>034-036-042>043-049>051-058-059-012300-
   Central Minnesota

CITY           SKY/WX    TMP DP  RH WIND       PRES   REMARKS
ST CLOUD       SUNNY     17  -4  39 S6        30.36S WCI   9
SAUK CENTRE      N/A     17  -2  43 SW6       30.36R WCI   9
PAYNESVILLE    SUNNY     19   5  53 SW5       30.37R WCI  13
AITKIN         SUNNY     18  -9  29 SW5       30.33R WCI  11
PINE RIVER     SUNNY     19   0  42 SW7       30.33F WCI  10
BRAINERD       SUNNY     19  -6  33 S7        30.32S WCI  10
STAPLES        SUNNY     19  -8  30 SW6       30.32F WCI  11
LONG PRAIRIE   FAIR      19   0  42 SW7       30.34S WCI  10
LITTLE FALLS   SUNNY     19  -8  30 S8        30.36R WCI   9
CAMP RIPLEY    FAIR      18  -3  40 SW8       30.35R WCI   8
LITCHFIELD     SUNNY     18   3  53 SW6       30.38R WCI   9
BUFFALO        SUNNY     20  -2  38 MISG      30.39R
HUTCHINSON     SUNNY     18   4  54 W5        30.39S WCI  11
$$
MNZ037-044-045-052-053-012300-
   East Central Minnesota

CITY           SKY/WX    TMP DP  RH WIND       PRES   REMARKS
PRINCETON      SUNNY     21  -6  30 CALM      30.37R
MORA           SUNNY     19  -8  30 W5        30.37S WCI  13
CAMBRIDGE      SUNNY     19   0  42 S6        30.38R WCI  11
RUSH CITY      SUNNY     19  -5  33 W3        30.37S
MOOSE LAKE     SUNNY     21  -8  27 W3        30.32R
HINCKLEY       CLEAR     21  -6  30 CALM      30.35S
CLOQUET        SUNNY     16 -13  27 W7        30.29S WCI   6
MCGREGOR       SUNNY     19  -6  32 S6        30.32F WCI  11
$$
MNZ071>073-080-081-089-090-097-098-012300-
   Southwest Minnesota

CITY           SKY/WX    TMP DP  RH WIND       PRES   REMARKS
MONTEVIDEO     SUNNY     16   1  53 SW9       30.39S WCI   4
GRANITE FALLS  SUNNY     19   7  59 S8        30.41S WCI   9
CANBY          SUNNY     21  10  61 SE7       30.36F WCI  12
MARSHALL       SUNNY     22  10  60 W5        30.39S WCI  16
REDWOOD FALLS  SUNNY     17   8  67 SW7       30.39R WCI   8
OLIVIA         SUNNY     16   5  62 SW3       30.40R
PIPESTONE      SUNNY     21  16  79 SW5       30.34F WCI  15
WINDOM         SUNNY     21  12  68 CALM      30.36S
WORTHINGTON    SUNNY     25  16  68 S6        30.35F WCI  18
JACKSON        SUNNY     25  14  63 CALM      30.37S
TRACY          SUNNY     20   8  60 SW6       30.38R WCI  13
SLAYTON        SUNNY     21  12  67 S3        30.36S
$$
MNZ065>067-074>077-082>085-091>093-012300-
   South Central Minnesota

CITY           SKY/WX    TMP DP  RH WIND       PRES   REMARKS
MANKATO        SUNNY     29  13  51 NW3       30.39F
NEW ULM        SUNNY     19   7  58 CALM      30.39S
ST JAMES       SUNNY     21  10  63 CALM      30.38S
FAIRMONT       SUNNY     29  13  51 CALM      30.39F
GLENCOE        SUNNY     18  -1  43 S5        30.38S WCI  11
FARIBAULT      SUNNY     21   3  45 CALM      30.37F
OWATONNA       SUNNY     19   9  63 CALM      30.37F
WASECA         SUNNY     21   7  53 CALM      30.40S
ALBERT LEA     SUNNY     19   7  58 CALM      30.38S
$$
MNZ078>079-086>088-094>096-012300-
   Southeast Minnesota

CITY           SKY/WX    TMP DP  RH WIND       PRES   REMARKS
ROCHESTER      SUNNY     20   4  50 NW9       30.36R WCI   9
RED WING       SUNNY     25  -2  30 W3        30.38F
STANTON        SUNNY     22   3  45 S3        30.37F
DODGE CENTER   SUNNY     18   0  45 NW5       30.37F WCI  11
WINONA         SUNNY     28   7  40 W7        30.39S WCI  21
AUSTIN         SUNNY     21   7  53 NW5       30.38S WCI  15
PRESTON        SUNNY     21   2  44 NW9       30.37R WCI  11
$$
ABBREVIATIONS USED IN REMARKS
   TC - TEMPERATURES IN CELSIUS
  WCI - WIND CHILL INDEX
   HX - HEAT INDEX
  VSB - VISIBILITY
$$




USA.gov is the U.S. government's official web portal to all federal, state and local government web resources and services.